User: anonymous   Login
Location: ?????
(55.6500°N, 37.2500°E)
Time: 17:50:45
(UTC+00:00)
Language:

Cosmos 1452 Rocket - Orbit

View from above orbital plane
View from above orbital plane
View from above satellite
View from above satellite

Ground track
Ground track

The orbit data is extracted from the following two-line orbital elements,

1 13992U 83031B   25196.91428809  .00000125  00000-0  50470-4 0  9991
2 13992  74.0536 352.3494 0005648 313.6079  46.4605 14.37388115212194
Epoch (UTC): 15 July 2025 21:56:34
Eccentricity: 0.0005648
inclination: 74.0536°
perigee height: 763 km
apogee height: 771 km
right ascension of ascending node: 352.3494°
argument of perigee: 313.6079°
revolutions per day: 14.37388115
mean anomaly at epoch: 46.4605°
orbit number at epoch: 21219

The dashed part of the orbit path shows where the satellite is in the earth's shadow,  

DLR